Location: NJAA Observatory
(40.6819°N, 74.8979°W)
Time: 22:01:23
(UTC-04:00)

Daily predictions for brighter satellites

Satellite Brightness Start Highest point End
(mag) Time Altitude Azimuth Time Altitude Azimuth Time Altitude Azimuth
USA 238 DEB 3.8 19:03:28 10° SSW 19:10:28 72° ESE 19:17:30 10° NE
USA 238 3.8 19:03:34 10° SSW 19:10:35 71° ESE 19:17:36 10° NE
Cosmos 2233 Rocket 4.0 19:07:42 10° S 19:13:55 68° E 19:20:12 10° NNE
Cosmos 1867 4.0 19:08:52 10° SW 19:14:18 72° WNW 19:19:48 10° NNE
CZ-2C R/B 4.2 19:15:47 10° SSW 19:20:24 37° W 19:24:56 10° NNW
BREEZE-M DEB (TANK) 1.9 19:19:11 10° WNW 19:21:13 59° SSW 19:25:00 10° SE
Cosmos 1953 4.0 19:20:29 10° ESE 19:22:33 14° E 19:24:36 10° NE
Cosmos 1980 3.8 19:18:46 10° SSW 19:24:25 85° WNW 19:30:07 10° NNE
Cosmos 921 Rocket 3.3 19:20:24 10° NNW 19:24:37 71° WSW 19:28:45 10° S
COSMOS 2455 4.1 19:20:12 10° SW 19:25:55 44° NW 19:31:41 10° NNE
NOAA 12 4.1 19:21:08 10° SSE 19:26:18 63° ENE 19:31:31 10° N
ATLAS 5 CENTAUR R/B 3.2 19:24:23 10° SSE 19:27:35 18° ESE 19:30:54 10° ENE
SL-16 R/B 2.6 19:23:58 10° S 19:29:16 42° ESE 19:34:35 10° NE
Cosmos 1607 4.1 19:24:49 10° SW 19:30:59 80° WNW 19:37:11 10° NNE
ATLAS CENTAUR R/B 3.6 19:27:02 10° SSW 19:31:35 51° ESE 19:44:51 10° NE
Cosmos 292 Rocket 3.8 19:29:10 10° SSW 19:33:58 89° ESE 19:38:48 10° NNE
Spot 2 Rocket 3.7 19:31:19 10° SE 19:36:11 51° ENE 19:41:04 10° N
Cosmos 2056 Rocket 3.7 19:30:55 10° NNW 19:36:17 59° ENE 19:41:38 10° SSE
BREEZE-M TANK 3.9 19:25:51 10° WNW 19:38:05 62° SW 19:41:39 10° SE
Cosmos 1076 Rocket 4.1 19:36:10 10° N 19:40:08 35° ENE 19:44:06 10° SE
Abrixas rocket 4.4 19:38:58 10° W 19:41:42 23° SW 19:44:25 10° SSE
Cosmos-2242 4.2 19:39:04 10° SE 19:42:28 23° E 19:45:53 10° NE
Meteor 1-22 Rocket 4.0 19:37:12 10° S 19:42:33 67° E 19:47:48 10° NNE
NOSS 3-2 (C) 3.9 19:37:12 10° S 19:42:45 39° ESE 19:48:42 10° NE
Spot 1 4.2 19:39:03 10° SSE 19:43:53 71° ENE 19:48:27 10° N
Resurs 01 Rocket 1.7 19:40:57 10° SSE 19:45:19 59° ENE 19:49:43 10° N
Cosmos 1437 2.7 19:42:09 10° N 19:45:26 89° E 19:48:42 10° S
Cosmos 1371 Rocket 4.1 19:40:25 10° NNW 19:45:44 86° WSW 19:51:04 10° SSE
Cosmos 1805 4.3 19:42:45 10° SE 19:45:58 24° E 19:49:11 10° NE
Meteor 2-5 Rocket 4.4 19:41:42 10° NNW 19:47:15 59° W 19:52:41 10° S
Cosmos 1408 Rocket 4.0 19:44:37 10° N 19:48:43 38° ENE 19:52:45 10° SSE
H-2A R/B 3.9 19:47:56 15° ESE 19:50:10 25° ENE 19:53:23 10° NNE
Okean 3 Rocket 3.7 19:46:16 10° N 19:50:50 86° W 19:55:22 10° S
Resurs 1-3 3.7 19:47:35 10° SSE 19:51:51 53° ENE 19:56:08 10° N
ALOS 2.8 19:48:36 10° SE 19:52:55 39° ENE 19:57:15 10° N
Cosmos 2219 Rocket 3.9 19:48:28 10° WSW 19:53:34 35° WNW 19:58:44 10° N
Helios 1B rocket 2.3 19:50:15 10° NNE 19:54:22 68° ESE 19:58:26 10° S
Cosmos 2278 Rocket 3.0 19:49:57 10° NNW 19:55:28 54° WSW 20:00:56 10° S
Aureole 2 Rocket 2.9 19:51:27 10° S 19:55:49 69° ESE 20:00:08 10° NNE
Meteor 1-24 Rocket 3.7 19:50:16 10° N 19:55:59 86° W 20:01:28 10° S
SJ-6B 3.7 19:52:11 10° S 19:56:01 53° W 19:59:58 10° NNW
FREGAT/IRIS 3.3 19:53:16 10° S 19:56:19 57° W 19:59:23 10° NNW
Cosmos 2297 3.6 19:52:16 10° NNW 19:57:58 78° ENE 20:03:37 10° SSE
ASTEX 1 4.1 19:55:06 10° NNE 19:59:28 31° E 20:03:47 10° SSE
Meteor 1-28 Rocket 4.1 19:57:19 10° N 20:00:57 50° WNW 20:04:33 10° SSW
Cosmos 1707 4.4 19:58:19 10° NNW 20:01:53 36° W 20:05:25 10° SSW
Cosmos 1758 3.7 19:58:25 10° SSE 20:02:14 40° E 20:06:05 10° NNE
Cosmos 1072 Rocket 4.4 19:56:17 10° S 20:02:23 81° E 20:08:31 10° N
Cosmos 1624 Rocket 4.2 19:58:49 10° NNW 20:04:01 73° WSW 20:09:11 10° S
METEOR-M 4.3 20:00:01 10° S 20:05:22 78° WSW 20:10:45 10° NNW
Cosmos 1378 3.2 20:02:58 10° N 20:06:43 78° W 20:10:25 10° S
Nadezhda 4 Rocket 4.4 20:03:03 10° N 20:08:59 42° ENE 20:13:51 15° SE
FENGYUN 3A 3.7 20:04:00 10° SSE 20:09:14 58° ENE 20:14:32 10° N
Cosmos 1743 Rocket 4.2 20:10:33 10° N 20:14:38 35° ENE 20:15:40 31° ESE
Cosmos 1544 3.7 20:15:08 35° E 20:15:08 35° E 20:18:32 10° NNE
Meteor 1-29 3.1 20:12:03 10° N 20:15:34 75° WNW 20:19:03 10° SSW
Cosmos 2369 Rocket 3.7 20:11:50 10° N 20:15:37 18° NE 20:16:33 17° ENE
Cosmos 1603 4.1 20:10:57 10° S 20:16:11 38° ESE 20:21:28 10° NE
CZ-4C R/B 3.5 20:11:30 10° WSW 20:16:33 40° NW 20:22:13 10° NNE
OAO 3 Rocket 3.9 20:12:45 10° SW 20:17:09 37° S 20:18:46 28° SE
HJ-1C 4.4 20:14:11 10° S 20:17:25 46° W 20:20:41 10° NNW
GP-B 4.4 20:14:29 10° NNE 20:17:02 22° ENE 20:17:02 22° ENE
Cosmos 1513 Rocket 4.5 20:13:18 10° S 20:19:39 83° E 20:26:07 10° N
FengYun 1-2 T 4.2 20:14:09 10° SSE 20:19:41 84° WSW 20:25:13 10° NNW
ATLAS CENTAUR R/B 2.3 20:15:48 10° NW 20:19:48 45° WSW 20:23:05 13° S
USA 215 3.7 20:14:40 10° NE 20:21:07 63° NW 20:27:32 10° WSW
Cosmos 2333 Rocket 4.3 20:19:54 10° WSW 20:24:46 28° NW 20:29:40 10° N
Atlas Centaur 2 4.0 20:20:16 10° WSW 20:27:37 34° SSW 20:31:50 20° SE
Cosmos 1943 Rocket 4.3 20:29:15 10° NNE 20:30:49 11° NE 20:31:02 11° NE
Meteor 1-21 Rocket 4.1 20:26:37 10° N 20:32:12 74° E 20:36:13 19° SSE
Cosmos 1452 Rocket 3.4 20:27:57 10° NNW 20:33:14 79° ENE 20:36:02 28° SSE
ERS-1 Rocket 3.7 20:34:26 32° ENE 20:34:26 32° ENE 20:38:47 10° N
Cosmos 2034 Rocket 4.1 20:30:14 10° S 20:36:29 81° W 20:42:50 10° N
Helios 1A 4.4 20:32:49 10° SSW 20:36:44 39° W 20:40:40 10° NNW
Meteor 2-12 Rocket 4.4 20:35:52 10° S 20:42:02 86° W 20:48:14 10° N
SeaSat 1 2.3 20:40:29 10° NNE 20:45:27 85° ESE 20:50:24 10° SSW
Cosmos 468 4.3 20:43:07 10° SSW 20:48:22 80° ESE 20:53:38 10° NNE
Cosmos 1674 3.6 20:45:17 10° N 20:47:51 37° NNE 20:47:51 37° NNE
H-2A R/B 4.3 20:57:32 15° NNE 20:57:32 15° NNE 20:58:37 10° NNE
NOSS 3-2 (A) 4.2 20:51:06 10° SW 20:57:04 54° NW 21:03:35 10° NNE
Cosmos 1420 Rocket 3.9 20:53:00 10° NNW 20:58:19 74° ENE 20:58:50 68° ESE
Cosmos 1953 3.7 20:54:51 10° SSW 20:58:36 39° WNW 21:02:22 10° N
Cosmos 1269 Rocket 3.9 21:02:38 10° SSW 21:07:56 89° NW 21:13:14 10° NNE
Cosmos 1627 Rocket 4.5 21:04:51 10° N 21:10:45 59° ENE 21:10:45 59° ENE
ATLAS 5 CENTAUR R/B 2.5 21:06:59 10° SW 21:11:41 55° NW 21:16:20 12° NNE
BREEZE-M DEB (TANK) 3.5 21:01:44 10° WNW 21:12:12 55° N 21:12:53 51° NNE
Cosmos 724 4.4 21:07:33 10° SW 21:13:27 75° WNW 21:19:33 10° NNE
SL-16 R/B 4.1 21:08:36 10° WSW 21:13:30 29° NW 21:18:25 10° N
Cosmos 1048 Rocket 4.4 21:11:56 10° SSW 21:18:35 53° NNE 21:22:33 10° NNE
Cosmos 1500 Rocket 4.5 21:20:50 10° NNW 21:24:24 48° WNW 21:24:24 48° WNW
Envisat 3.5 21:27:01 53° N 21:27:01 53° N 21:30:53 10° NNW
Cosmos 1655 Rocket 4.2 21:38:14 10° N 21:43:17 61° N 21:43:17 61° N
Cosmos 2369 Rocket 3.2 21:54:36 10° NNW 21:58:21 43° NW 21:58:21 43° NW
Cosmos 1943 Rocket 3.9 22:10:07 10° NNW 22:12:33 26° N 22:12:33 26° N
